Temperature
5 5 5 5 5 5 5 5 5 5 5 5 5 5 5 5 5 6 6 6 5 6 6 6 6 6 6 6 7 7 7 7 6 7 7 7 7 7 7 7 7 8 8
4 4 4 4 4 4 4 4 4 4 5 4 4 4 4 5 5 5 5 5 5 5 5 5 5 6 6 6 6 6 6 6 6 6 6 6 6 6 7 7 7 7 7
4 3 4 4 4 4 4 4 4 4 4 4 4 4 4 4 4 4 4 4 4 4 4 5 5 5 5 5 5 5 5 5 5 5 5 5 5 5 6 6 6 6 6
3 3 3 3 3 3 3 3 3 3 3 4 4 3 3 3 4 4 4 4 4 4 4 4 4 4 4 4 4 4 4 4 4 4 4 4 4 4 4 5 5 5 5
3 3 3 3 3 3 3 3 3 3 3 3 3 3 3 3 3 3 3 3 3 3 3 3 3 3 4 4 4 3 3 3 3 3 3 3 3 3 3 3 3 4 5
3 2 2 2 2 2 2 2 2 2 3 3 3 3 3 3 3 3 3 3 3 3 3 3 3 3 3 3 3 3 3 3 3 2 2 2 2 2 2 2 2 2 3
2 2 2 2 2 2 2 2 2 2 2 2 2 2 2 2 2 2 2 2 2 2 2 2 2 2 2 2 2 2 2 2 2 2 2 2 2 2 1 1 1 1 2
2 2 2 2 1 1 1 1 1 1 1 1 2 2 2 2 2 2 2 2 2 2 2 2 2 2 2 1 2 2 2 2 2 1 1 1 1 1 1 1 1 1 1
2 2 1 1 1 1 1 1 1 1 1 1 1 1 1 1 1 1 1 1 1 1 1 1 1 1 1 1 1 1 1 1 1 1 1 1 1 1 0 0 0 -0 0
2 1 1 1 1 1 1 0 0 1 1 1 1 1 1 1 1 1 1 1 1 1 1 1 1 1 0 0 0 0 0 0 0 0 0 0 0 0 -0 -0 -1 -1 -1
1 1 1 1 0 0 0 0 0 0 0 0 0 0 0 0 0 0 0 0 0 0 0 -0 -0 -0 -0 -0 -0 -0 -0 -1 -1 -1 -1 -1 -1 -1 -1 -1 -1 -1 -2
1 1 1 0 0 0 0 0 0 0 0 -0 -0 -0 -0 -0 -0 -0 -0 -0 -0 -0 -0 -1 -1 -1 -1 -1 -1 -1 -1 -1 -1 -1 -1 -1 -1 -1 -1 -1 -1 -1 -2
1 1 1 0 0 0 0 0 -0 -0 -0 -0 -0 -0 -1 -1 -1 -1 -1 -1 -1 -1 -1 -1 -1 -1 -1 -1 -1 -2 -2 -2 -2 -2 -2 -2 -2 -2 -2 -2 -2 -2 -2
1 1 0 0 0 0 -0 -0 -0 -0 -0 -1 -1 -1 -1 -1 -1 -1 -1 -1 -2 -2 -2 -2 -2 -2 -2 -2 -2 -2 -2 -3 -3 -3 -3 -3 -3 -3 -3 -3 -3 -3 -3
1 1 0 0 -0 -0 -0 -0 -1 -1 -1 -1 -1 -1 -1 -2 -2 -2 -2 -2 -2 -2 -2 -2 -3 -3 -3 -3 -3 -3 -3 -3 -3 -3 -3 -3 -3 -4 -4 -4 -4 -4 -4
1 1 0 -0 -0 -1 -1 -1 -1 -1 -1 -1 -1 -2 -2 -2 -2 -2 -2 -3 -3 -3 -3 -3 -3 -3 -3 -3 -4 -4 -4 -4 -4 -4 -4 -4 -4 -4 -4 -4 -5 -5 -5
0 0 -0 -0 -1 -1 -1 -1 -1 -1 -1 -1 -2 -2 -2 -2 -2 -3 -3 -3 -3 -3 -3 -4 -4 -4 -4 -4 -4 -4 -5 -5 -4 -5 -5 -5 -5 -5 -5 -5 -5 -5 -5
0 0 -0 -0 -1 -1 -1 -1 -2 -2 -2 -2 -2 -2 -3 -3 -3 -3 -3 -3 -4 -4 -4 -4 -4 -4 -5 -5 -5 -5 -5 -5 -5 -5 -5 -5 -6 -6 -6 -6 -6 -6 -6
0 -0 -0 -1 -1 -1 -1 -2 -2 -2 -2 -2 -2 -3 -3 -3 -3 -3 -4 -4 -4 -4 -4 -5 -5 -5 -5 -5 -6 -6 -6 -6 -6 -6 -6 -6 -6 -6 -6 -6 -7 -6 -7
-0 -0 -1 -1 -1 -1 -2 -2 -2 -2 -3 -3 -3 -3 -3 -4 -4 -4 -4 -4 -4 -5 -5 -5 -5 -5 -6 -6 -6 -6 -6 -6 -6 -6 -6 -7 -7 -7 -7 -7 -7 -7 -7
-0 -1 -1 -1 -1 -2 -2 -2 -2 -3 -3 -3 -3 -3 -4 -4 -4 -4 -4 -5 -5 -5 -5 -6 -6 -6 -6 -6 -7 -7 -7 -7 -7 -7 -7 -7 -7 -7 -7 -7 -7 -7 -7
-1 -1 -1 -2 -2 -2 -2 -2 -3 -3 -3 -3 -4 -4 -4 -5 -5 -5 -5 -5 -5 -5 -6 -6 -6 -6 -6 -7 -7 -7 -7 -7 -7 -7 -7 -7 -8 -8 -8 -8 -8 -8 -7
-1 -2 -2 -2 -2 -2 -3 -3 -3 -4 -4 -4 -4 -4 -5 -5 -5 -5 -5 -5 -6 -6 -6 -6 -6 -7 -7 -7 -7 -7 -7 -7 -8 -8 -8 -8 -8 -8 -8 -8 -8 -8 -8
-2 -2 -2 -2 -3 -3 -3 -3 -4 -4 -4 -4 -5 -5 -5 -5 -5 -6 -6 -6 -6 -6 -6 -7 -7 -7 -7 -7 -7 -7 -7 -8 -8 -8 -8 -8 -8 -8 -8 -8 -8 -8 -8
-2 -2 -2 -3 -3 -3 -3 -4 -4 -4 -4 -5 -5 -5 -5 -6 -6 -6 -6 -6 -6 -6 -7 -7 -7 -7 -7 -7 -7 -7 -8 -8 -8 -8 -8 -8 -8 -8 -8 -8 -8 -8 -8
-3 -3 -3 -3 -3 -3 -4 -4 -4 -5 -5 -5 -5 -5 -6 -6 -6 -6 -7 -7 -7 -7 -7 -7 -7 -7 -7 -7 -8 -8 -8 -8 -8 -8 -8 -8 -8 -8 -8 -8 -8 -8 -8
Wind_Speed
6 6 6 6 6 6 5 5 5 6 6 6 5 6 6 6 6 6 6 6 6 6 6 6 7 7 6 5 5 5 6 7 8 6 6 6 6 6 6 8 9 9 9
6 6 6 6 6 6 5 6 6 5 5 5 5 5 5 6 6 6 6 6 6 6 6 7 7 6 6 6 6 6 6 7 8 8 6 5 7 7 7 7 7 8 9
5 6 6 6 6 6 6 6 5 5 5 5 4 4 4 5 5 5 6 6 6 6 6 6 6 6 6 5 6 6 5 5 6 7 7 5 5 5 6 7 7 7 9
5 5 5 6 6 6 6 5 5 5 5 5 4 4 4 3 3 4 4 5 5 5 5 5 6 6 6 6 5 5 5 5 5 6 6 5 5 5 5 6 6 7 8
5 5 5 6 6 6 5 5 5 5 4 4 4 3 3 2 3 3 3 4 4 4 3 3 3 3 3 3 3 4 4 4 4 4 5 5 5 4 5 5 7 7 8
5 5 5 5 5 5 5 4 4 4 4 3 3 3 3 2 2 3 3 3 3 3 3 3 3 2 2 2 3 4 4 5 5 5 5 6 6 6 6 6 7 7 7
5 5 4 4 5 5 5 4 4 4 4 3 3 3 3 3 3 2 2 2 2 3 3 3 2 2 2 3 3 3 4 4 5 6 7 7 7 6 7 7 8 8 9
4 4 4 4 5 5 4 4 4 3 3 3 3 3 3 3 3 2 2 2 2 2 3 3 3 3 3 3 3 3 3 3 4 5 5 6 6 6 7 8 8 9 9
4 4 4 4 4 4 4 4 4 3 3 3 3 3 3 3 3 2 2 1 1 2 2 2 3 3 3 3 3 3 3 3 3 4 5 6 7 7 6 5 6 6 7
5 5 4 4 4 4 4 4 3 3 3 3 3 2 2 3 3 3 3 1 1 2 2 2 2 3 3 3 3 3 4 4 4 4 4 5 5 5 6 6 5 6 6
5 4 4 4 4 4 4 3 3 3 3 3 2 2 2 3 3 3 3 2 2 3 3 3 2 3 4 4 4 3 4 5 5 5 4 4 4 5 5 5 5 6 7
4 4 4 4 4 3 3 3 3 3 2 2 2 2 2 2 3 3 4 3 3 3 3 3 3 3 4 4 3 3 4 4 4 4 4 4 5 5 5 6 7 7 8
5 5 4 4 4 3 3 3 2 2 2 2 2 2 2 2 2 3 4 4 4 3 3 3 4 4 4 3 2 3 4 3 3 3 4 4 5 6 6 6 7 7 8
5 5 4 4 4 3 3 3 3 2 2 2 2 2 2 2 2 3 3 3 4 3 3 2 3 2 2 2 2 2 2 3 3 3 4 4 5 5 5 5 6 6 7
6 5 4 4 4 4 4 3 4 4 3 3 3 3 3 3 3 4 4 3 3 3 3 2 2 2 2 2 2 2 3 3 3 3 3 4 5 5 5 5 6 6 7
5 5 4 4 3 3 3 3 4 5 4 5 5 4 4 4 5 4 4 4 4 3 2 2 2 2 2 3 3 3 3 3 4 4 4 4 5 5 6 6 6 6 7
6 5 4 4 4 4 3 3 3 3 5 6 6 5 5 5 5 4 4 4 3 3 2 2 2 3 3 3 3 4 4 4 4 4 4 5 5 6 6 6 6 6 7
6 6 5 4 4 4 4 4 3 3 3 3 4 5 5 5 5 4 4 3 2 2 2 3 3 3 3 3 4 4 4 4 4 4 5 5 5 6 6 7 7 7 8
6 5 5 4 4 4 4 3 3 4 3 3 2 3 4 4 4 4 3 3 3 3 3 3 3 3 4 4 4 4 4 5 5 5 5 6 6 6 6 7 7 10 9
6 6 5 4 4 4 4 4 4 4 4 3 3 3 2 2 2 3 3 3 3 3 3 4 4 4 4 4 4 4 5 5 5 5 6 6 6 6 7 8 8 8 8
5 5 7 5 4 4 4 4 4 4 4 4 4 3 3 3 3 3 3 3 4 4 4 4 4 4 4 4 4 5 5 5 5 5 6 6 6 7 7 8 8 8 8
5 5 5 5 5 5 5 4 4 4 5 5 4 3 5 4 4 4 4 4 4 4 4 4 4 4 4 4 4 5 5 6 6 6 6 6 7 7 8 8 8 8 8
5 5 5 5 5 6 5 5 5 5 5 5 4 3 4 4 4 4 4 4 4 4 4 4 4 4 4 4 5 5 6 6 6 6 7 7 7 7 8 8 9 9 9
6 6 6 5 5 5 5 5 5 5 5 5 4 4 4 4 4 4 4 4 4 4 4 4 5 6 6 5 5 6 6 7 7 7 9 8 8 8 8 8 9 9 9
5 6 6 5 5 5 5 5 5 5 5 5 5 5 5 4 4 4 4 4 4 4 5 5 5 5 6 7 7 7 9 11 11 10 8 7 8 9 9 9 8 9 8
5 6 5 5 5 5 5 5 5 5 5 5 5 5 5 5 4 4 4 4 4 4 5 5 6 6 7 7 9 10 11 12 13 13 9 7 8 8 8 8 9 8 8
Wind_Direction
316 317 318 318 317 314 305 302 300 298 299 295 287 284 272 267 261 251 242 240 238 240 239 240 242 244 245 242 238 235 236 241 250 261 267 266 266 265 270 269 269 266 261
310 313 316 318 315 312 306 305 304 303 301 295 286 283 279 272 265 258 248 243 241 242 241 240 243 243 246 245 240 239 240 242 248 258 268 269 272 272 274 277 279 274 271
307 311 315 317 317 314 309 306 307 306 301 298 291 284 282 279 274 263 252 248 246 248 249 247 246 241 243 245 243 243 248 253 253 257 265 271 272 274 281 283 284 283 281
302 306 310 313 318 317 314 310 308 305 301 301 295 286 283 283 286 277 262 256 253 256 254 252 250 245 246 248 244 244 248 251 252 254 262 267 272 278 281 282 288 289 287
295 300 306 312 316 319 321 319 316 312 309 303 297 290 288 288 297 293 283 272 260 259 261 261 257 257 261 256 252 254 249 246 248 254 259 267 270 281 281 284 284 291 288
287 294 304 310 313 315 317 318 318 321 322 322 318 309 298 295 316 309 295 287 278 265 262 263 263 251 245 253 261 267 263 252 255 255 259 260 271 278 286 284 285 288 285
278 289 298 303 305 309 312 317 319 321 322 326 331 329 324 313 305 303 303 288 291 281 267 261 262 268 256 255 261 261 263 268 264 258 258 262 271 278 281 279 279 281 279
270 283 291 294 296 303 307 309 311 311 312 321 324 322 322 333 323 301 306 294 297 308 300 274 263 265 262 261 262 268 276 284 278 266 264 271 277 282 278 276 280 283 285
264 273 280 282 286 293 295 298 300 301 304 312 315 318 322 332 347 341 323 300 302 307 305 303 283 264 278 276 265 268 283 294 302 292 289 285 288 290 287 280 281 286 288
256 262 267 269 273 278 281 286 289 290 293 301 307 310 313 322 347 347 330 301 304 307 310 307 309 298 295 290 272 272 278 292 301 303 296 293 291 289 288 274 274 277 286
254 256 259 261 265 268 272 276 278 278 282 289 296 304 312 325 337 343 342 323 304 302 302 300 305 319 319 314 297 280 280 291 291 293 296 299 299 295 293 291 284 273 274
246 248 250 255 260 262 264 269 268 268 276 281 288 302 317 326 333 338 335 326 316 295 293 297 307 323 319 314 307 301 298 294 283 287 293 299 301 300 300 300 296 288 279
241 244 246 249 251 252 252 254 252 257 266 273 276 288 306 315 318 321 325 323 314 302 299 306 314 319 313 305 307 311 304 295 290 289 290 294 298 298 301 302 302 298 290
238 242 240 242 245 244 243 244 244 245 253 265 272 279 291 299 308 314 311 309 304 296 294 299 306 316 314 318 315 314 303 295 291 290 295 299 303 301 300 303 301 304 299
235 238 234 235 239 238 238 241 243 242 247 255 261 266 276 284 298 312 310 306 305 299 301 298 300 304 311 314 315 323 319 304 294 293 295 297 299 301 302 304 297 297 291
228 231 232 231 235 240 246 255 251 252 256 260 271 275 276 283 303 303 298 300 306 311 301 294 299 302 305 311 313 316 317 316 314 306 297 297 298 298 299 300 295 290 288
228 231 231 231 231 234 238 246 259 248 240 250 259 265 269 283 287 289 288 293 301 301 286 292 298 301 302 305 305 304 305 308 306 299 297 299 298 297 296 296 295 292 289
227 230 231 233 231 232 234 238 243 250 252 252 246 253 261 271 277 281 278 281 284 283 277 281 286 293 297 298 299 299 300 302 300 298 297 297 295 292 291 292 292 291 292
220 223 225 229 229 230 230 233 237 243 251 257 260 254 254 260 264 272 265 258 262 267 270 274 279 284 287 290 292 293 295 295 296 296 294 293 292 291 290 290 292 292 290
222 221 217 221 221 223 224 226 231 235 241 247 252 257 254 249 256 262 256 258 263 267 270 273 277 279 281 284 286 288 290 291 293 291 293 294 293 290 289 290 292 292 291
219 216 211 217 221 221 222 225 229 233 239 247 252 250 245 250 258 262 262 264 267 270 272 275 277 278 278 280 281 283 286 288 289 290 292 294 294 291 290 288 288 289 288
212 212 210 215 217 217 222 226 229 233 238 246 255 249 244 249 258 262 264 267 270 272 271 270 272 274 275 274 274 276 279 283 285 287 290 292 292 293 293 291 289 291 290
207 208 211 214 216 218 220 223 225 231 237 242 245 244 240 245 252 258 264 269 271 271 270 267 269 272 274 272 271 271 273 277 281 284 288 289 290 292 293 293 292 293 293
207 209 212 213 213 214 218 222 224 229 235 239 240 241 243 246 252 256 261 265 267 267 267 267 268 271 274 277 275 273 274 279 281 280 279 281 286 289 290 292 292 291 291
207 211 212 213 214 216 218 222 225 228 232 235 238 240 243 247 251 255 258 259 262 264 268 271 269 270 271 274 277 277 278 283 283 282 280 278 280 283 287 290 291 294 293
210 213 217 217 218 219 220 223 227 229 231 233 235 238 240 242 247 250 253 254 258 263 266 268 269 273 276 275 275 277 281 285 286 287 285 282 281 284 289 290 292 293 294
Height
1466 1463 1461 1459 1457 1455 1453 1451 1449 1448 1447 1445 1444 1443 1443 1442 1442 1442 1442 1443 1444 1444 1445 1446 1447 1448 1449 1450 1450 1451 1451 1453 1452 1452 1453 1454 1454 1454 1455 1455 1455 1454 1454
1463 1460 1458 1456 1453 1451 1449 1448 1446 1444 1443 1442 1441 1440 1439 1438 1438 1438 1438 1438 1439 1439 1440 1441 1441 1442 1443 1444 1445 1445 1445 1446 1446 1446 1447 1448 1448 1448 1448 1448 1448 1447 1446
1460 1457 1455 1452 1450 1448 1446 1444 1443 1441 1440 1439 1437 1437 1436 1435 1434 1434 1434 1434 1434 1435 1435 1436 1436 1437 1438 1439 1439 1439 1440 1440 1441 1441 1440 1442 1442 1442 1441 1441 1441 1440 1439
1457 1454 1452 1449 1447 1445 1443 1441 1440 1438 1436 1435 1434 1433 1432 1431 1431 1430 1430 1430 1430 1430 1430 1431 1432 1432 1433 1433 1433 1434 1434 1435 1436 1436 1435 1436 1436 1435 1435 1435 1434 1433 1432
1453 1451 1449 1447 1444 1442 1440 1438 1436 1435 1433 1432 1431 1430 1429 1428 1427 1427 1426 1426 1426 1426 1426 1426 1427 1427 1427 1428 1429 1429 1429 1429 1430 1430 1430 1430 1430 1429 1429 1428 1428 1426 1425
1450 1448 1446 1444 1441 1439 1437 1435 1434 1432 1430 1428 1427 1426 1425 1425 1424 1423 1423 1422 1422 1422 1422 1422 1423 1423 1423 1423 1424 1424 1425 1425 1424 1425 1424 1424 1424 1424 1424 1423 1422 1421 1418
1447 1445 1443 1441 1439 1436 1435 1433 1431 1429 1427 1426 1424 1423 1422 1421 1421 1421 1420 1419 1419 1418 1419 1419 1419 1419 1419 1419 1419 1419 1420 1420 1420 1421 1420 1419 1419 1419 1419 1418 1417 1415 1413
1444 1442 1440 1438 1436 1434 1432 1430 1429 1427 1426 1424 1422 1421 1419 1418 1418 1418 1417 1417 1416 1416 1415 1415 1415 1415 1415 1415 1415 1414 1414 1415 1415 1416 1415 1414 1414 1414 1414 1413 1411 1409 1408
1441 1439 1437 1435 1434 1432 1430 1428 1427 1425 1424 1422 1421 1419 1417 1417 1416 1416 1415 1414 1414 1413 1413 1413 1412 1412 1411 1411 1411 1410 1410 1411 1411 1411 1410 1410 1409 1409 1408 1407 1406 1404 1401
1437 1436 1434 1433 1431 1429 1428 1427 1425 1424 1422 1421 1419 1418 1416 1416 1415 1414 1414 1413 1412 1411 1411 1410 1409 1408 1408 1408 1408 1407 1406 1406 1406 1406 1406 1405 1404 1403 1403 1402 1400 1399 1396
1434 1433 1431 1430 1429 1427 1426 1425 1423 1422 1420 1419 1417 1416 1415 1414 1413 1413 1412 1411 1410 1409 1408 1407 1406 1405 1405 1404 1404 1403 1403 1403 1402 1402 1401 1400 1399 1398 1397 1396 1395 1394 1391
1431 1429 1428 1427 1426 1425 1424 1422 1421 1420 1418 1417 1416 1414 1413 1412 1412 1411 1410 1409 1408 1407 1406 1405 1404 1403 1402 1401 1400 1400 1399 1399 1398 1397 1396 1395 1394 1393 1392 1391 1389 1388 1386
1427 1426 1425 1424 1423 1422 1421 1420 1418 1417 1416 1415 1414 1412 1411 1411 1410 1409 1408 1407 1406 1404 1403 1402 1401 1400 1399 1398 1397 1396 1396 1395 1394 1393 1391 1390 1389 1388 1387 1385 1383 1382 1380
1423 1422 1421 1420 1419 1419 1418 1417 1416 1415 1414 1413 1412 1411 1410 1409 1408 1407 1406 1404 1403 1402 1400 1399 1398 1397 1396 1395 1394 1393 1392 1391 1390 1389 1387 1386 1385 1383 1381 1380 1377 1375 1373
1419 1418 1417 1417 1416 1415 1415 1414 1413 1412 1411 1411 1410 1409 1407 1406 1406 1405 1403 1402 1400 1399 1398 1396 1395 1394 1393 1392 1391 1390 1389 1387 1386 1385 1384 1382 1380 1378 1377 1375 1373 1370 1368
1415 1414 1414 1413 1412 1412 1411 1410 1409 1409 1408 1407 1407 1406 1405 1404 1403 1402 1400 1399 1398 1397 1396 1394 1393 1392 1391 1389 1388 1387 1385 1384 1383 1381 1380 1378 1376 1374 1372 1370 1368 1366 1363
1411 1410 1410 1409 1409 1408 1407 1406 1406 1405 1405 1404 1403 1402 1402 1401 1400 1398 1397 1396 1395 1394 1392 1391 1390 1389 1388 1387 1385 1384 1382 1381 1379 1378 1376 1374 1372 1370 1367 1365 1363 1361 1358
1407 1407 1406 1406 1405 1404 1404 1403 1402 1402 1401 1400 1400 1399 1398 1397 1396 1395 1394 1393 1392 1391 1390 1389 1387 1386 1385 1384 1382 1381 1379 1377 1376 1374 1372 1370 1368 1366 1363 1361 1359 1356 1353
1403 1402 1402 1402 1401 1401 1400 1399 1399 1398 1398 1397 1396 1395 1395 1394 1393 1392 1391 1390 1389 1388 1387 1386 1385 1384 1382 1381 1379 1378 1376 1374 1372 1370 1368 1366 1364 1362 1359 1357 1354 1351 1349
1398 1398 1398 1397 1397 1396 1396 1395 1395 1394 1394 1393 1392 1392 1391 1390 1389 1388 1387 1386 1385 1384 1384 1383 1381 1380 1379 1377 1376 1374 1372 1371 1369 1367 1365 1362 1360 1357 1355 1352 1349 1346 1343
1393 1393 1393 1393 1392 1392 1392 1392 1391 1391 1390 1389 1389 1388 1388 1387 1386 1385 1384 1383 1382 1381 1380 1379 1378 1376 1375 1374 1372 1370 1369 1367 1365 1363 1361 1358 1356 1353 1350 1347 1344 1341 1339
1388 1388 1388 1388 1388 1388 1387 1387 1387 1386 1386 1385 1385 1385 1384 1383 1382 1381 1381 1380 1379 1378 1376 1375 1374 1373 1371 1370 1368 1367 1365 1363 1361 1359 1357 1354 1352 1349 1346 1342 1339 1337 1334
1382 1383 1383 1383 1383 1383 1383 1383 1382 1382 1382 1381 1381 1380 1380 1379 1378 1377 1377 1376 1375 1374 1372 1371 1370 1368 1367 1366 1364 1363 1361 1359 1358 1355 1353 1350 1348 1345 1342 1339 1336 1333 1330
1377 1377 1378 1378 1378 1378 1378 1378 1378 1378 1377 1377 1377 1376 1375 1375 1374 1373 1372 1371 1370 1369 1368 1367 1366 1364 1363 1361 1360 1358 1357 1355 1353 1351 1349 1347 1344 1341 1338 1335 1333 1330 1327
1372 1372 1373 1373 1373 1373 1373 1373 1373 1373 1372 1372 1372 1371 1371 1370 1369 1369 1368 1367 1366 1365 1364 1362 1361 1360 1358 1357 1355 1354 1352 1351 1349 1347 1345 1343 1340 1337 1335 1332 1329 1326 1324
1367 1367 1367 1368 1368 1368 1368 1368 1368 1368 1368 1367 1367 1366 1366 1365 1365 1364 1363 1362 1361 1360 1359 1358 1357 1356 1354 1353 1351 1349 1348 1346 1345 1343 1341 1339 1336 1334 1331 1329 1326 1323 1321